TGL17LR LFBZ-LICC

Flight info

Callsign TGL17LR
Flight time 2h 11m
Altitude 35000
Route SOVOS G17 ORTEZ DCT TBO DCT PERDU N862 POSSY/N0447F360 M601 BCN N725 ORKUM M603 ELSAG DCT ALG/N0448F370 DCT QUENN DCT RONAB DCT BEKIV/N0388F190 M871 LIBRO
Aircraft A320/M-SDE3FGHIRWY/LB1

Departure

Time 2026-04-25 09:24
Airport Biarritz Pays Basque airport (LFBZ)

Arrival

Time 2026-04-25 11:36
Airport Catania-Fontanarossa Airport (LICC)
Time Latitude Longitude Altitude Speed Heading
2026-04-25 08:29 43.47130 -1.52905 255 ft 0 kts 352°
2026-04-25 09:06 43.47114 -1.52903 255 ft 4 kts 360°
2026-04-25 09:07 43.47088 -1.52907 255 ft 4 kts 22°
2026-04-25 09:07 43.47066 -1.52926 255 ft 4 kts 53°
2026-04-25 09:07 43.47055 -1.52959 255 ft 4 kts 85°
2026-04-25 09:07 43.47055 -1.52973 255 ft 1 kts 88°
2026-04-25 09:11 43.47055 -1.52938 255 ft 7 kts 92°
2026-04-25 09:11 43.47019 -1.52877 255 ft 11 kts 143°
2026-04-25 09:12 43.46992 -1.52788 254 ft 10 kts 91°
2026-04-25 09:12 43.46994 -1.52692 253 ft 10 kts 89°
2026-04-25 09:12 43.46995 -1.52597 253 ft 10 kts 89°
2026-04-25 09:12 43.46997 -1.52505 252 ft 10 kts 89°
2026-04-25 09:13 43.46998 -1.52414 251 ft 9 kts 90°
2026-04-25 09:13 43.46998 -1.52326 251 ft 9 kts 89°
2026-04-25 09:13 43.46997 -1.52239 250 ft 9 kts 99°
2026-04-25 09:13 43.46963 -1.52181 250 ft 7 kts 157°
2026-04-25 09:14 43.46950 -1.52177 250 ft 0 kts 170°
2026-04-25 09:20 43.46942 -1.52176 250 ft 5 kts 172°
2026-04-25 09:20 43.46882 -1.52171 249 ft 9 kts 173°
2026-04-25 09:21 43.46842 -1.52093 249 ft 15 kts 95°
2026-04-25 09:21 43.46845 -1.51915 248 ft 19 kts 89°
2026-04-25 09:21 43.46846 -1.51733 246 ft 19 kts 89°
2026-04-25 09:21 43.46848 -1.51560 245 ft 17 kts 89°
2026-04-25 09:22 43.46850 -1.51401 244 ft 16 kts 89°
2026-04-25 09:22 43.46852 -1.51249 242 ft 16 kts 89°
2026-04-25 09:22 43.46854 -1.51105 242 ft 14 kts 88°
2026-04-25 09:22 43.46883 -1.51001 242 ft 8 kts 60°
2026-04-25 09:23 43.46860 -1.50976 241 ft 3 kts 216°
2026-04-25 09:23 43.46853 -1.50996 241 ft 1 kts 255°
2026-04-25 09:23 43.46853 -1.51000 242 ft 0 kts 268°
2026-04-25 09:24 43.46850 -1.51316 243 ft 71 kts 269°
2026-04-25 09:24 43.46839 -1.52292 251 ft 131 kts 270°
2026-04-25 09:24 43.46835 -1.53674 669 ft 146 kts 268°
2026-04-25 09:24 43.46820 -1.55079 1433 ft 147 kts 269°
2026-04-25 09:25 43.46801 -1.56505 2140 ft 153 kts 269°
2026-04-25 09:25 43.46779 -1.58063 2544 ft 173 kts 270°
2026-04-25 09:25 43.46748 -1.59755 3089 ft 181 kts 265°
2026-04-25 09:25 43.46201 -1.61380 3410 ft 204 kts 223°
2026-04-25 09:26 43.44820 -1.62089 3718 ft 228 kts 180°
2026-04-25 09:26 43.43314 -1.61290 4265 ft 243 kts 138°
2026-04-25 09:26 43.42397 -1.59337 4970 ft 248 kts 110°
2026-04-25 09:26 43.41914 -1.57052 5728 ft 250 kts 102°
2026-04-25 09:27 43.41551 -1.54733 6622 ft 248 kts 101°
2026-04-25 09:27 43.41172 -1.52411 7380 ft 250 kts 103°
2026-04-25 09:27 43.40741 -1.50095 8144 ft 251 kts 105°
2026-04-25 09:27 43.40259 -1.47771 8899 ft 254 kts 108°
2026-04-25 09:28 43.39736 -1.45434 9642 ft 257 kts 108°
2026-04-25 09:28 43.39385 -1.42999 10326 ft 266 kts 94°
2026-04-25 09:28 43.39346 -1.40342 10577 ft 290 kts 91°
2026-04-25 09:28 43.39321 -1.37463 10799 ft 313 kts 91°
2026-04-25 09:29 43.39296 -1.34355 10989 ft 337 kts 91°
2026-04-25 09:29 43.39267 -1.31033 11180 ft 357 kts 91°
2026-04-25 09:29 43.39230 -1.27574 11693 ft 366 kts 91°
2026-04-25 09:29 43.39189 -1.24052 12334 ft 370 kts 91°
2026-04-25 09:30 43.39142 -1.20491 12989 ft 375 kts 92°
2026-04-25 09:30 43.39091 -1.16887 13646 ft 379 kts 92°
2026-04-25 09:30 43.39038 -1.13250 14254 ft 383 kts 92°
2026-04-25 09:30 43.38980 -1.09571 14832 ft 386 kts 93°
2026-04-25 09:31 43.38496 -1.05944 15402 ft 388 kts 110°
2026-04-25 09:31 43.37234 -1.02681 15970 ft 389 kts 126°
2026-04-25 09:31 43.35638 -0.99665 16540 ft 391 kts 127°
2026-04-25 09:31 43.34023 -0.96642 17130 ft 394 kts 127°
2026-04-25 09:32 43.32392 -0.93600 17689 ft 397 kts 127°
2026-04-25 09:32 43.30749 -0.90540 18226 ft 400 kts 127°
2026-04-25 09:32 43.29091 -0.87459 18733 ft 403 kts 127°
2026-04-25 09:32 43.27421 -0.84356 19210 ft 405 kts 127°
2026-04-25 09:33 43.25744 -0.81240 19686 ft 407 kts 127°
2026-04-25 09:33 43.24059 -0.78102 20162 ft 410 kts 127°
2026-04-25 09:33 43.22366 -0.74942 20610 ft 412 kts 127°
2026-04-25 09:33 43.20660 -0.71763 21053 ft 415 kts 127°
2026-04-25 09:34 43.18942 -0.68569 21495 ft 418 kts 128°
2026-04-25 09:34 43.17212 -0.65360 21929 ft 420 kts 128°
2026-04-25 09:34 43.15468 -0.62131 22357 ft 423 kts 128°
2026-04-25 09:34 43.13714 -0.58885 22769 ft 425 kts 128°
2026-04-25 09:35 43.11948 -0.55622 23192 ft 428 kts 128°
2026-04-25 09:35 43.10169 -0.52347 23592 ft 430 kts 128°
2026-04-25 09:35 43.08375 -0.49047 23941 ft 433 kts 128°
2026-04-25 09:35 43.06576 -0.45731 24285 ft 435 kts 128°
2026-04-25 09:36 43.04770 -0.42397 24626 ft 437 kts 128°
2026-04-25 09:36 43.02954 -0.39050 24966 ft 439 kts 128°
2026-04-25 09:36 43.01128 -0.35690 25300 ft 441 kts 128°
2026-04-25 09:36 42.99294 -0.32320 25645 ft 443 kts 128°
2026-04-25 09:37 42.97451 -0.28947 25968 ft 444 kts 128°
2026-04-25 09:37 42.95591 -0.25558 26281 ft 447 kts 128°
2026-04-25 09:37 42.93723 -0.22161 26562 ft 449 kts 128°
2026-04-25 09:37 42.91849 -0.18742 26867 ft 451 kts 128°
2026-04-25 09:38 42.89971 -0.15312 27168 ft 452 kts 128°
2026-04-25 09:38 42.88082 -0.11873 27453 ft 454 kts 128°
2026-04-25 09:38 42.86187 -0.08428 27732 ft 455 kts 128°
2026-04-25 09:38 42.84281 -0.04967 27997 ft 457 kts 128°
2026-04-25 09:39 42.82367 -0.01495 28253 ft 459 kts 128°
2026-04-25 09:39 42.80441 0.01988 28493 ft 462 kts 128°
2026-04-25 09:39 42.78529 0.05444 28751 ft 464 kts 129°
2026-04-25 09:40 42.73831 0.11393 29267 ft 463 kts 149°
2026-04-25 09:40 42.70980 0.13393 29649 ft 460 kts 160°
2026-04-25 09:40 42.67933 0.14667 30004 ft 457 kts 170°
2026-04-25 09:40 42.64787 0.15182 30353 ft 455 kts 180°
2026-04-25 09:41 42.61625 0.15213 30666 ft 453 kts 181°
2026-04-25 09:41 42.58477 0.15235 31015 ft 452 kts 181°
2026-04-25 09:41 42.55342 0.15264 31358 ft 450 kts 180°
2026-04-25 09:41 42.52212 0.15299 31672 ft 449 kts 180°
2026-04-25 09:42 42.49089 0.15333 31996 ft 448 kts 180°
2026-04-25 09:42 42.45974 0.15363 32319 ft 447 kts 180°
2026-04-25 09:42 42.42865 0.15390 32637 ft 447 kts 181°
2026-04-25 09:42 42.39760 0.15415 32957 ft 446 kts 180°
2026-04-25 09:43 42.36659 0.15479 33250 ft 446 kts 176°
2026-04-25 09:43 42.33627 0.16311 33544 ft 447 kts 161°
2026-04-25 09:43 42.30862 0.18226 33829 ft 448 kts 144°
2026-04-25 09:43 42.28572 0.21075 34101 ft 450 kts 132°
2026-04-25 09:44 42.26513 0.24264 34351 ft 450 kts 132°
2026-04-25 09:44 42.24468 0.27451 34632 ft 449 kts 132°
2026-04-25 09:44 42.22427 0.30638 34914 ft 448 kts 132°
2026-04-25 09:44 42.20391 0.33818 35106 ft 448 kts 132°
2026-04-25 09:45 42.16321 0.40146 35146 ft 446 kts 132°
2026-04-25 09:45 42.12244 0.46458 35147 ft 446 kts 132°
2026-04-25 09:46 42.08148 0.52772 35149 ft 448 kts 132°
2026-04-25 09:46 42.04042 0.59090 35151 ft 448 kts 132°
2026-04-25 09:47 41.99939 0.65407 35155 ft 449 kts 132°
2026-04-25 09:47 41.95831 0.71719 35152 ft 449 kts 132°
2026-04-25 09:48 41.91716 0.78018 35151 ft 448 kts 132°
2026-04-25 09:48 41.87594 0.84300 35149 ft 448 kts 132°
2026-04-25 09:49 41.83476 0.90576 35150 ft 448 kts 132°
2026-04-25 09:49 41.79387 0.96804 35150 ft 448 kts 132°
2026-04-25 09:50 41.75236 1.03104 35151 ft 448 kts 132°
2026-04-25 09:50 41.71139 1.09316 35145 ft 448 kts 130°
2026-04-25 09:51 41.67851 1.16384 35143 ft 449 kts 118°
2026-04-25 09:51 41.64993 1.23789 35150 ft 448 kts 118°
2026-04-25 09:52 41.62117 1.31170 35151 ft 447 kts 118°
2026-04-25 09:52 41.59239 1.38530 35157 ft 447 kts 118°
2026-04-25 09:53 41.56363 1.45880 35153 ft 446 kts 118°
2026-04-25 09:53 41.53485 1.53224 35147 ft 446 kts 118°
2026-04-25 09:54 41.50586 1.60615 35153 ft 455 kts 118°
2026-04-25 09:54 41.47617 1.68179 35154 ft 465 kts 118°
2026-04-25 09:55 41.44605 1.75832 35152 ft 467 kts 118°
2026-04-25 09:55 41.41569 1.83487 35182 ft 468 kts 118°
2026-04-25 09:56 41.40048 1.87315 35423 ft 467 kts 118°
2026-04-25 09:56 41.38531 1.91136 35690 ft 466 kts 118°
2026-04-25 09:56 41.37017 1.94954 35931 ft 466 kts 118°
2026-04-25 09:56 41.35504 1.98762 36126 ft 465 kts 118°
2026-04-25 09:57 41.32475 2.06362 36167 ft 464 kts 118°
2026-04-25 09:57 41.30119 2.14329 36166 ft 465 kts 103°
2026-04-25 09:58 41.28988 2.21311 36163 ft 461 kts 103°
2026-04-25 09:58 41.27648 2.29478 36162 ft 447 kts 103°
2026-04-25 09:59 41.26308 2.37532 36158 ft 446 kts 103°
2026-04-25 09:59 41.24964 2.45569 36158 ft 445 kts 103°
2026-04-25 10:00 41.23616 2.53603 36158 ft 445 kts 103°
2026-04-25 10:00 41.22269 2.61632 36158 ft 445 kts 103°
2026-04-25 10:01 41.20918 2.69662 36155 ft 445 kts 103°
2026-04-25 10:01 41.19558 2.77678 36153 ft 445 kts 103°
2026-04-25 10:02 41.18190 2.85703 36154 ft 445 kts 103°
2026-04-25 10:02 41.16821 2.93722 36157 ft 445 kts 103°
2026-04-25 10:03 41.15440 3.01738 36157 ft 446 kts 103°
2026-04-25 10:03 41.14050 3.09745 36157 ft 446 kts 103°
2026-04-25 10:04 41.12658 3.17766 36154 ft 446 kts 103°
2026-04-25 10:04 41.11273 3.25737 36155 ft 447 kts 103°
2026-04-25 10:05 41.09868 3.33766 36156 ft 447 kts 103°
2026-04-25 10:05 41.08460 3.41794 36160 ft 447 kts 103°
2026-04-25 10:06 41.07041 3.49814 36161 ft 447 kts 104°
2026-04-25 10:06 41.05617 3.57831 36168 ft 447 kts 103°
2026-04-25 10:07 41.04195 3.65838 36168 ft 447 kts 104°
2026-04-25 10:07 41.02767 3.73841 36169 ft 446 kts 104°
2026-04-25 10:08 41.01333 3.81839 36170 ft 446 kts 103°
2026-04-25 10:08 40.99887 3.89833 36165 ft 447 kts 103°
2026-04-25 10:09 40.98430 3.97823 36165 ft 447 kts 103°
2026-04-25 10:09 40.96977 4.05815 36164 ft 447 kts 103°
2026-04-25 10:10 40.95517 4.13807 36168 ft 447 kts 103°
2026-04-25 10:10 40.94047 4.21795 36168 ft 447 kts 103°
2026-04-25 10:11 40.92569 4.29782 36170 ft 447 kts 103°
2026-04-25 10:11 40.91085 4.37771 36169 ft 447 kts 103°
2026-04-25 10:12 40.89741 4.45794 36169 ft 447 kts 98°
2026-04-25 10:13 40.88469 4.58000 36173 ft 447 kts 96°
2026-04-25 10:13 40.87661 4.66145 36171 ft 447 kts 97°
2026-04-25 10:14 40.86819 4.74285 36170 ft 447 kts 97°
2026-04-25 10:14 40.85955 4.82423 36171 ft 447 kts 97°
2026-04-25 10:15 40.85089 4.90564 36170 ft 447 kts 97°
2026-04-25 10:15 40.84229 4.98702 36179 ft 447 kts 97°
2026-04-25 10:16 40.83357 5.06838 36179 ft 447 kts 97°
2026-04-25 10:16 40.82476 5.14964 36179 ft 447 kts 97°
2026-04-25 10:17 40.81587 5.23087 36178 ft 447 kts 97°
2026-04-25 10:17 40.80697 5.31209 36177 ft 447 kts 97°
2026-04-25 10:18 40.79801 5.39326 36181 ft 447 kts 98°
2026-04-25 10:18 40.78896 5.47440 36180 ft 447 kts 98°
2026-04-25 10:19 40.77992 5.55550 36181 ft 447 kts 98°
2026-04-25 10:19 40.77085 5.63663 36178 ft 447 kts 98°
2026-04-25 10:20 40.76163 5.71770 36176 ft 447 kts 98°
2026-04-25 10:20 40.75232 5.79932 36176 ft 447 kts 98°
2026-04-25 10:21 40.74299 5.88039 36175 ft 447 kts 98°
2026-04-25 10:21 40.73365 5.96147 36176 ft 447 kts 98°
2026-04-25 10:22 40.72426 6.04251 36174 ft 447 kts 98°
2026-04-25 10:22 40.71480 6.12348 36177 ft 447 kts 98°
2026-04-25 10:23 40.70549 6.20450 36175 ft 447 kts 97°
2026-04-25 10:23 40.69699 6.28576 36177 ft 448 kts 97°
2026-04-25 10:24 40.68864 6.36703 36177 ft 448 kts 97°
2026-04-25 10:24 40.67992 6.44824 36178 ft 448 kts 97°
2026-04-25 10:25 40.67120 6.52887 36186 ft 448 kts 97°
2026-04-25 10:25 40.66246 6.61013 36185 ft 448 kts 97°
2026-04-25 10:26 40.65364 6.69139 36185 ft 448 kts 97°
2026-04-25 10:26 40.64469 6.77265 36183 ft 448 kts 97°
2026-04-25 10:27 40.63566 6.85391 36182 ft 448 kts 97°
2026-04-25 10:27 40.62655 6.93512 36180 ft 448 kts 97°
2026-04-25 10:28 40.61744 7.01624 36174 ft 448 kts 97°
2026-04-25 10:28 40.60832 7.09728 36170 ft 448 kts 97°
2026-04-25 10:29 40.59911 7.17826 36166 ft 448 kts 97°
2026-04-25 10:29 40.58987 7.25927 36171 ft 448 kts 97°
2026-04-25 10:30 40.58059 7.34026 36168 ft 448 kts 97°
2026-04-25 10:30 40.57116 7.42126 36177 ft 448 kts 97°
2026-04-25 10:31 40.56602 7.50259 36168 ft 446 kts 85°
2026-04-25 10:31 40.57283 7.58355 36170 ft 445 kts 82°
2026-04-25 10:32 40.57985 7.66441 36172 ft 445 kts 82°
2026-04-25 10:32 40.58675 7.74534 36176 ft 445 kts 82°
2026-04-25 10:33 40.59360 7.82625 36165 ft 445 kts 82°
2026-04-25 10:33 40.60041 7.90726 36169 ft 445 kts 82°
2026-04-25 10:34 40.60712 7.98830 36169 ft 445 kts 82°
2026-04-25 10:34 40.61382 8.06928 36157 ft 445 kts 82°
2026-04-25 10:35 40.62052 8.15028 36155 ft 445 kts 82°
2026-04-25 10:35 40.62557 8.23144 36148 ft 446 kts 90°
2026-04-25 10:36 40.61521 8.31186 36155 ft 447 kts 103°
2026-04-25 10:36 40.59992 8.39123 36149 ft 447 kts 103°
2026-04-25 10:37 40.58479 8.47062 36154 ft 448 kts 103°
2026-04-25 10:37 40.56958 8.55006 36147 ft 448 kts 103°
2026-04-25 10:38 40.55420 8.62943 36144 ft 448 kts 103°
2026-04-25 10:38 40.53886 8.70821 36141 ft 448 kts 103°
2026-04-25 10:39 40.52340 8.78742 36153 ft 447 kts 103°
2026-04-25 10:39 40.50792 8.86650 36145 ft 447 kts 103°
2026-04-25 10:40 40.49238 8.94556 36138 ft 447 kts 103°
2026-04-25 10:40 40.47678 9.02454 36136 ft 447 kts 103°
2026-04-25 10:41 40.46112 9.10347 36139 ft 447 kts 104°
2026-04-25 10:41 40.44545 9.18236 36140 ft 447 kts 104°
2026-04-25 10:42 40.43230 9.24846 36145 ft 447 kts 104°
2026-04-25 10:42 40.41650 9.32727 36145 ft 447 kts 104°
2026-04-25 10:43 40.40075 9.40553 36150 ft 447 kts 104°
2026-04-25 10:43 40.38487 9.48426 36155 ft 446 kts 104°
2026-04-25 10:44 40.36886 9.56288 36155 ft 446 kts 104°
2026-04-25 10:44 40.35284 9.64138 36152 ft 446 kts 104°
2026-04-25 10:45 40.33687 9.71986 36156 ft 445 kts 104°
2026-04-25 10:45 40.32086 9.79826 36155 ft 445 kts 104°
2026-04-25 10:46 40.30476 9.87655 36162 ft 445 kts 104°
2026-04-25 10:46 40.28862 9.95477 36156 ft 445 kts 105°
2026-04-25 10:47 40.27241 10.03293 36158 ft 445 kts 105°
2026-04-25 10:47 40.25615 10.11101 36155 ft 445 kts 105°
2026-04-25 10:48 40.23982 10.18909 36154 ft 445 kts 105°
2026-04-25 10:48 40.22349 10.26717 36163 ft 445 kts 105°
2026-04-25 10:49 40.20705 10.34511 36164 ft 444 kts 105°
2026-04-25 10:49 40.19058 10.42297 36163 ft 444 kts 105°
2026-04-25 10:50 40.17412 10.50075 36161 ft 444 kts 105°
2026-04-25 10:50 40.15759 10.57849 36169 ft 444 kts 105°
2026-04-25 10:51 40.14106 10.65614 36166 ft 443 kts 105°
2026-04-25 10:51 40.12449 10.73365 36165 ft 443 kts 105°
2026-04-25 10:52 40.10779 10.81106 36164 ft 443 kts 105°
2026-04-25 10:52 40.09103 10.88841 36162 ft 442 kts 105°
2026-04-25 10:53 40.07431 10.96571 36160 ft 442 kts 105°
2026-04-25 10:53 40.05765 11.04301 36161 ft 443 kts 105°
2026-04-25 10:54 40.04089 11.12036 36167 ft 442 kts 105°
2026-04-25 10:54 40.02396 11.19751 36161 ft 442 kts 105°
2026-04-25 10:55 40.00699 11.27467 36159 ft 442 kts 106°
2026-04-25 10:55 39.99003 11.35179 36165 ft 442 kts 105°
2026-04-25 10:56 39.97312 11.42891 36166 ft 442 kts 105°
2026-04-25 10:56 39.95604 11.50595 36171 ft 442 kts 106°
2026-04-25 10:57 39.93884 11.58289 36168 ft 442 kts 106°
2026-04-25 10:57 39.92162 11.65980 36169 ft 442 kts 106°
2026-04-25 10:58 39.90445 11.73663 36172 ft 441 kts 106°
2026-04-25 10:58 39.88724 11.81333 36174 ft 441 kts 107°
2026-04-25 10:59 39.86031 11.88461 36167 ft 441 kts 126°
2026-04-25 10:59 39.81655 11.94014 36156 ft 442 kts 144°
2026-04-25 11:00 39.76628 11.98625 36148 ft 442 kts 144°
2026-04-25 11:00 39.71602 12.03245 36151 ft 443 kts 144°
2026-04-25 11:01 39.66573 12.07873 36155 ft 443 kts 143°
2026-04-25 11:01 39.61538 12.12496 36157 ft 443 kts 144°
2026-04-25 11:02 39.56497 12.17100 36158 ft 443 kts 144°
2026-04-25 11:02 39.51456 12.21704 36157 ft 443 kts 144°
2026-04-25 11:03 39.46410 12.26301 36156 ft 443 kts 144°
2026-04-25 11:03 39.41363 12.30894 36157 ft 444 kts 144°
2026-04-25 11:04 39.36313 12.35479 36157 ft 444 kts 144°
2026-04-25 11:04 39.31259 12.40065 36153 ft 444 kts 144°
2026-04-25 11:05 39.26230 12.44612 36160 ft 444 kts 144°
2026-04-25 11:05 39.21128 12.49209 36159 ft 444 kts 144°
2026-04-25 11:06 39.16060 12.53763 36161 ft 444 kts 144°
2026-04-25 11:06 39.10996 12.58331 36163 ft 445 kts 144°
2026-04-25 11:07 39.05925 12.62895 36161 ft 445 kts 144°
2026-04-25 11:07 39.00842 12.67453 36162 ft 446 kts 144°
2026-04-25 11:08 38.95753 12.72004 36159 ft 446 kts 144°
2026-04-25 11:08 38.90660 12.76555 36159 ft 446 kts 144°
2026-04-25 11:09 38.85604 12.81063 36161 ft 445 kts 144°
2026-04-25 11:09 38.80511 12.85590 36153 ft 445 kts 144°
2026-04-25 11:10 38.75420 12.90119 36151 ft 446 kts 144°
2026-04-25 11:10 38.70324 12.94645 36154 ft 446 kts 144°
2026-04-25 11:11 38.65227 12.99170 36147 ft 446 kts 144°
2026-04-25 11:11 38.60095 13.03724 36145 ft 446 kts 142°
2026-04-25 11:12 38.55565 13.09041 36145 ft 446 kts 135°
2026-04-25 11:12 38.53316 13.11775 36029 ft 447 kts 135°
2026-04-25 11:12 38.51039 13.14549 35778 ft 446 kts 135°
2026-04-25 11:12 38.48800 13.17287 35536 ft 445 kts 135°
2026-04-25 11:13 38.46567 13.20021 35282 ft 445 kts 135°
2026-04-25 11:13 38.44333 13.22747 35116 ft 444 kts 135°
2026-04-25 11:13 38.42099 13.25461 35154 ft 444 kts 135°
2026-04-25 11:14 38.37620 13.30887 35149 ft 444 kts 135°
2026-04-25 11:14 38.33166 13.36273 35150 ft 444 kts 135°
2026-04-25 11:15 38.28681 13.41698 35149 ft 445 kts 135°
2026-04-25 11:15 38.24190 13.47118 35147 ft 445 kts 135°
2026-04-25 11:16 38.17449 13.55240 35147 ft 445 kts 135°
2026-04-25 11:16 38.15201 13.57940 34820 ft 446 kts 135°
2026-04-25 11:16 38.12932 13.60661 33721 ft 450 kts 135°
2026-04-25 11:17 38.10651 13.63395 32130 ft 453 kts 135°
2026-04-25 11:17 38.08348 13.66158 30506 ft 457 kts 135°
2026-04-25 11:17 38.06025 13.68946 28616 ft 462 kts 135°
2026-04-25 11:17 38.03694 13.71742 27043 ft 459 kts 135°
2026-04-25 11:18 38.01379 13.74510 25629 ft 455 kts 135°
2026-04-25 11:18 37.99095 13.77239 24225 ft 449 kts 135°
2026-04-25 11:18 37.96827 13.79942 22755 ft 445 kts 135°
2026-04-25 11:18 37.94578 13.82617 21629 ft 443 kts 135°
2026-04-25 11:19 37.92331 13.85293 21190 ft 444 kts 135°
2026-04-25 11:19 37.90082 13.87968 20593 ft 443 kts 135°
2026-04-25 11:19 37.87842 13.90632 20012 ft 441 kts 135°
2026-04-25 11:19 37.85614 13.93283 19453 ft 438 kts 135°
2026-04-25 11:20 37.83397 13.95916 18906 ft 436 kts 135°
2026-04-25 11:20 37.81187 13.98536 18351 ft 434 kts 135°
2026-04-25 11:20 37.78987 14.01143 17765 ft 432 kts 135°
2026-04-25 11:20 37.76800 14.03731 17212 ft 429 kts 135°
2026-04-25 11:21 37.74617 14.06310 16703 ft 427 kts 135°
2026-04-25 11:21 37.72518 14.08784 16444 ft 397 kts 135°
2026-04-25 11:21 37.70570 14.11078 16312 ft 369 kts 135°
2026-04-25 11:21 37.68760 14.13212 16184 ft 344 kts 135°
2026-04-25 11:22 37.67057 14.15222 15961 ft 330 kts 135°
2026-04-25 11:22 37.65957 14.16520 15831 ft 325 kts 135°
2026-04-25 11:22 37.63765 14.19113 15452 ft 321 kts 135°
2026-04-25 11:22 37.62139 14.21036 15150 ft 320 kts 135°
2026-04-25 11:23 37.60519 14.22946 14808 ft 319 kts 135°
2026-04-25 11:23 37.58897 14.24849 14493 ft 318 kts 137°
2026-04-25 11:23 37.57032 14.26313 14198 ft 318 kts 159°
2026-04-25 11:23 37.54924 14.27141 13866 ft 318 kts 163°
2026-04-25 11:24 37.53515 14.27634 13636 ft 317 kts 164°
2026-04-25 11:24 37.51396 14.28362 13307 ft 315 kts 164°
2026-04-25 11:24 37.49288 14.29087 12992 ft 313 kts 164°
2026-04-25 11:24 37.47194 14.29806 12664 ft 311 kts 164°
2026-04-25 11:25 37.45111 14.30523 12353 ft 309 kts 164°
2026-04-25 11:25 37.43039 14.31236 12029 ft 308 kts 163°
2026-04-25 11:25 37.41103 14.32316 11698 ft 304 kts 144°
2026-04-25 11:25 37.39620 14.34163 11365 ft 299 kts 122°
2026-04-25 11:26 37.38792 14.36526 11029 ft 295 kts 101°
2026-04-25 11:26 37.38698 14.39069 10681 ft 290 kts 79°
2026-04-25 11:26 37.39317 14.41455 10331 ft 287 kts 59°
2026-04-25 11:26 37.40400 14.43553 9999 ft 286 kts 55°
2026-04-25 11:27 37.41281 14.45785 9624 ft 286 kts 71°
2026-04-25 11:27 37.41638 14.48238 9252 ft 285 kts 83°
2026-04-25 11:27 37.41845 14.50694 8655 ft 281 kts 83°
2026-04-25 11:27 37.41987 14.52344 8216 ft 280 kts 83°
2026-04-25 11:28 37.42266 14.55530 7613 ft 268 kts 82°
2026-04-25 11:28 37.42459 14.57770 7488 ft 248 kts 83°
2026-04-25 11:28 37.42635 14.59851 7361 ft 231 kts 82°
2026-04-25 11:28 37.42807 14.61813 7130 ft 222 kts 82°
2026-04-25 11:29 37.42977 14.63732 6731 ft 221 kts 83°
2026-04-25 11:29 37.43149 14.65679 6246 ft 225 kts 83°
2026-04-25 11:29 37.43319 14.67620 5910 ft 221 kts 83°
2026-04-25 11:29 37.43486 14.69520 5606 ft 217 kts 83°
2026-04-25 11:30 37.43651 14.71407 5322 ft 218 kts 83°
2026-04-25 11:30 37.43817 14.73307 5031 ft 219 kts 83°
2026-04-25 11:30 37.43984 14.75222 4737 ft 221 kts 83°
2026-04-25 11:30 37.44151 14.77145 4437 ft 221 kts 84°
2026-04-25 11:31 37.44319 14.79072 4140 ft 222 kts 84°
2026-04-25 11:31 37.44485 14.80990 3843 ft 217 kts 84°
2026-04-25 11:31 37.44646 14.82852 3564 ft 211 kts 84°
2026-04-25 11:31 37.44803 14.84662 3290 ft 206 kts 84°
2026-04-25 11:32 37.44955 14.86433 3016 ft 201 kts 84°
2026-04-25 11:32 37.45103 14.88151 2779 ft 193 kts 84°
2026-04-25 11:32 37.45245 14.89797 2507 ft 185 kts 84°
2026-04-25 11:32 37.45379 14.91362 2285 ft 173 kts 84°
2026-04-25 11:33 37.45502 14.92793 2056 ft 157 kts 85°
2026-04-25 11:33 37.45616 14.94124 1838 ft 148 kts 85°
2026-04-25 11:33 37.45723 14.95382 1642 ft 143 kts 87°
2026-04-25 11:33 37.45828 14.96613 1447 ft 140 kts 85°
2026-04-25 11:34 37.45932 14.97833 1275 ft 141 kts 87°
2026-04-25 11:34 37.46036 14.99057 1091 ft 140 kts 86°
2026-04-25 11:34 37.46139 15.00267 881 ft 138 kts 86°
2026-04-25 11:34 37.46247 15.01472 742 ft 138 kts 85°
2026-04-25 11:35 37.46340 15.02671 508 ft 136 kts 86°
2026-04-25 11:35 37.46448 15.03848 323 ft 135 kts 84°
2026-04-25 11:35 37.46538 15.04997 126 ft 131 kts 82°
2026-04-25 11:35 37.46630 15.06090 35 ft 115 kts 83°
2026-04-25 11:36 37.46703 15.06910 29 ft 73 kts 84°
2026-04-25 11:36 37.46747 15.07474 25 ft 54 kts 84°
2026-04-25 11:36 37.46819 15.07726 27 ft 25 kts 46°
2026-04-25 11:36 37.46925 15.07797 23 ft 16 kts 318°
2026-04-25 11:37 37.46932 15.07683 26 ft 12 kts 263°
2026-04-25 11:37 37.46925 15.07582 27 ft 13 kts 265°
2026-04-25 11:37 37.46913 15.07443 27 ft 19 kts 266°
2026-04-25 11:37 37.46897 15.07277 28 ft 18 kts 263°
2026-04-25 11:38 37.46885 15.07125 29 ft 18 kts 265°
2026-04-25 11:38 37.46872 15.06959 25 ft 21 kts 263°
2026-04-25 11:38 37.46856 15.06779 26 ft 15 kts 263°
2026-04-25 11:38 37.46844 15.06650 28 ft 15 kts 264°
2026-04-25 11:39 37.46857 15.06558 27 ft 9 kts 332°
2026-04-25 11:39 37.46918 15.06568 26 ft 10 kts 19°
2026-04-25 11:39 37.46936 15.06576 26 ft 1 kts 19°
2026-04-25 11:39 37.46937 15.06576 26 ft 0 kts 19°